AirNav   Air Wisconsin pilot careers
 
 1542 users online  

9Y2 East Gull Lake Airport
East Gull Lake, Minnesota, USA

GOING TO EAST GULL LAKE?


FAA INFORMATION EFFECTIVE 11 OCTOBER 2018

Location

FAA Identifier: 9Y2
Lat/Long: 46-23-01.8800N / 094-22-25.0100W
46-23.031333N / 094-22.416833W
46.3838556 / -94.3736139
(estimated)
Elevation: 1236 ft. / 376.7 m (surveyed)
Variation: 04E (1985)
From city: 8 miles NW of EAST GULL LAKE, MN
Time zone: UTC -5 (UTC -6 during Standard Time)
Zip code: 56401

Airport Operations

Airport use: Open to the public
Activation date: 03/1943
Control tower: no
ARTCC: MINNEAPOLIS CENTER
FSS: PRINCETON FLIGHT SERVICE STATION
NOTAMs facility: PNM (NOTAM-D service available)
Attendance: UNATNDD
Wind indicator: yes
Segmented circle: no

Airport Communications

CTAF: 122.9
WX ASOS at BRD (10 nm E): 126.775 (218-828-3314)
WX AWOS-3 at RYM (18 nm S): 142.95 (320-632-7500)
WX AWOS-3 at SAZ (18 nm W): 118.325 (218-894-3666)

Nearby radio navigation aids

NDB name  Hdg/Dist  Freq  Var  ID
STAPLES089/17.925701ESAZ ... .- --..
RIPLEY353/18.340403EXCR -..- -.-. .-.
PINE RIVER176/20.633003EPWC .--. .-- -.-.
LITTLE FALLS354/26.135903ELXL .-.. -..- .-..
AITKIN251/30.539700EAIT .- .. -
LONGVILLE188/37.339203EXVG -..- ...- --.

Airport Services

Parking: tiedowns

Runway Information

Runway 13/31

Dimensions: 2618 x 160 ft. / 798 x 49 m
Surface: turf, in good condition
Runway edge markings: RY 13/31 NSTD MKGS; MKD WITH YELLOW CONES.
RUNWAY 13  RUNWAY 31
Latitude: 46-23.191500N46-22.871167N
Longitude: 094-22.625000W094-22.208667W
Elevation: 1230.0 ft.1230.0 ft.
Gradient: 0.2%0.2%
Traffic pattern: leftleft
Markings: NSTD
Runway end identifier lights: nono
Obstructions: 65 ft. tree, 1013 ft. from runway, 216 ft. right of centerline, 15:1 slope to clear3 ft. brush, 12 ft. from runway, 4:1 slope to clear

Airport Ownership and Management from official FAA records

Ownership: Publicly-owned
Owner: CITY OF EAST GULL LAKE
10790 SQUAW POINT RD
BRAINERD, MN 56401
Phone 218-828-9279
Manager: ROB MASON
CITY ADMINISTRATOR, , 10790 SQUAW POINT RD
BRAINERD, MN 56401
Phone 218-828-9279

Airport Operational Statistics

Aircraft operations: avg 83/month *
100% transient general aviation
* for 12-month period ending 30 June 2018

Additional Remarks

ARPT NOT PLOWED WINTER MONTHS.
WATCH FOR VEHICLES & PEDESTRIANS CROSSING RY.

Instrument Procedures

There are no published instrument procedures at 9Y2.

Some nearby airports with instrument procedures:

KBRD - Brainerd Lakes Regional Airport (10 nm E)
KRYM - Ray S Miller Army Airfield (18 nm S)
KSAZ - Staples Municipal Airport (18 nm W)
KPWC - Pine River Regional Airport (20 nm N)
KLXL - Little Falls/Morrison County Airport-Lindbergh Field (26 nm S)
 
Loc | Ops | Rwys | IFR | FBO | Links
Com | Nav | Svcs | Stats | Notes


 
Area around 9Y2 (East Gull Lake Airport)
 
Road maps at: MapQuest Bing Google
 
Aerial photo
WARNING: Photo may not be current or correct
Aerial photo of 9Y2 (East Gull Lake Airport)
Photo taken 29-Jul-2015
looking northeast.

Do you have a better or more recent aerial photo of East Gull Lake Airport that you would like to share? If so, please send us your photo.

 
Sectional chart

 
Airport distance calculator
Flying to East Gull Lake Airport? Find the distance to fly.

From to 9Y2

Sunrise and sunset
Times for 23-Oct-2018
 Local
(UTC-5)
 Zulu
(UTC)
Morning civil twilight07:1612:16
Sunrise07:4712:47
Sunset18:1723:17
Evening civil twilight18:4723:47

Current date and time
Zulu (UTC)  23-Oct-2018 16:15:02
Local (UTC-5)  23-Oct-2018 11:15:02
 
METAR
KBRD 
10nm E 
231553Z AUTO 00000KT 10SM CLR 06/M04 A3040 RMK AO2 SLP305 T00561039
KRYM 
18nm S 
231556Z AUTO 00000KT 10SM CLR 05/M02 A3041 RMK AO2 SLP313 T00451019 $
KSAZ 
18nm W 
231555Z AUTO 00000KT 10SM CLR 02/M03 A3040 RMK AO2
KPWC 
20nm N 
231555Z AUTO 34003KT 10SM OVC028 02/M03 A3042 RMK AO2
TAF
KBRD 
10nm E 
231142Z 2312/2412 34005KT P6SM SCT035 FM231600 34006KT P6SM FEW250 FM232000 VRB04KT P6SM SKC
NOTAMs
Click for the latest NOTAMs
NOTAMs are issued by the DoD/FAA and will open in a separate window not controlled by AirNav.

 

 
 

Would you like to see your business listed on this page?

 If your business provides an interesting product or service to pilots, flight crews, aircraft, or users of the East Gull Lake Airport, you should consider listing it here.  To start the listing process, click on the button below
 
Add a business
 

Other Pages about East Gull Lake Airport

Update a link
 
Copyright © AirNav, LLC. All rights reserved. Privacy Policy  Contact